Find Sentinel-2B

NORAD ID: 42063 Int'l Des: 2017-013 Owner: COPERN/ESA Country: I-EU operational
LEOCIRCULARRETROGRADESSO

リアルタイム位置

3D地球を読み込み中...

Sentinel-2Bについて

説明を読み込み中...

次回通過

Passes for default location (London). Set your location on the main map for personalized predictions.

高度履歴

Loading altitude history...

軌道要素

1 42063U 17013A 26119.81586352 .00000126 00000-0 64755-4 0 9994
2 42063 98.5653 195.2741 0001218 90.0293 270.1029 14.30815279477725
Epoch: Apr 29, 2026 • Age: 7 hours

現在のステータス

高度 796.3 km
速度 7.45 km/s
衛星直下点 -18.06°S, 52.84°W
打ち上げ日 Mar 7, 2017
運用期間 9.1 years
タイプ earth observation

技術仕様

分類 Payload
質量 1130.00 kg
乾燥質量 1063.00 kg
総質量 1130.00 kg
長さ 3.40 m
直径 1.80 m
スパン 5.00 m
形状 Box + 1 panel
製造者 ADSB
バスタイプ Sentinel-2
フェーズステータス In Orbit
所有者/国 COPERN/ESA/I-EU

Most Searched